This demonstration page uses our WeatherBlox Daily Observations layout. Learn more.

Left ArrowRight Arrow

Hourly Observations for August 31, 2020

Temp ( °F °C ) Dew Point ( °F °C ) Humidity (%) Winds ( mph kmh ) Pressure ( in mb ) Visibility ( mi km ) Precip ( " mm )
12:59 am 00:59 Partly Cloudy 71 21.7 61 16.1 71 71 SSE 3 6 29.96 1015 10 16 0.00 0.00
1:59 am 01:59 Partly Cloudy 71 21.7 63 17.2 76 76 Calm 29.97 1015 10 16 0.00 0.00
2:59 am 02:59 Partly Cloudy 70 21.1 62 16.7 76 76 ESE 3 6 29.96 1015 10 16 0.00 0.00
3:59 am 03:59 Mostly Cloudy 70 21.1 63 17.2 79 79 SE 3 6 29.98 1015 10 16 0.00 0.00
4:59 am 04:59 Mostly Cloudy 72 22.2 63 17.2 73 73 ESE 3 6 29.98 1015 10 16 0.00 0.00
5:59 am 05:59 Mostly Cloudy 73 22.8 63 17.2 71 71 SE 5 7 29.99 1016 10 16 0.00 0.00
6:59 am 06:59 Sunny 73 22.8 63 17.2 71 71 ESE 5 7 30.00 1016 10 16 0.00 0.00
7:59 am 07:59 Sunny 76 24.4 65 18.3 69 69 undefined N/A 30.01 1016 10 16 0.00 0.00
8:59 am 08:59 undefined N/A N/A N/A undefined N/A 30.02 1017 10 16 0.00 0.00
9:59 am 09:59 Mostly Cloudy 81 27.2 29 -1.7 15 15 ESE 12 19 30.02 1017 10 16 0.00 0.00
10:59 am 10:59 Mostly Cloudy 81 27.2 63 17.2 54 54 ESE 10 17 30.03 1017 10 16 0.00 0.00
11:59 am 11:59 Mostly Cloudy 81 27.2 63 17.2 54 54 ESE 14 22 30.03 1017 10 16 0.00 0.00
12:59 pm 12:59 Mostly Cloudy 81 27.2 63 17.2 54 54 ESE 10 17 30.02 1017 9 14 0.00 0.00
1:59 pm 13:59 Mostly Cloudy 83 28.3 62 16.7 49 49 ESE 15 24 30.01 1016 10 16 0.00 0.00
2:59 pm 14:59 Mostly Cloudy 83 28.3 61 16.1 48 48 ESE 10 17 29.99 1016 10 16 0.00 0.00
3:59 pm 15:59 Sunny 82 27.8 61 16.1 49 49 ESE 10 17 29.98 1015 10 16 0.00 0.00
4:59 pm 16:59 Mostly Cloudy 81 27.2 61 16.1 51 51 ESE 13 20 29.97 1015 10 16 0.00 0.00
5:59 pm 17:59 Mostly Cloudy 79 26.1 66 18.9 65 65 ESE 10 17 29.98 1015 10 16 0.00 0.00
6:59 pm 18:59 Mostly Cloudy 78 25.6 65 18.3 64 64 E 9 15 29.98 1015 10 16 0.00 0.00
7:59 pm 19:59 Cloudy 77 25 65 18.3 66 66 ESE 12 19 29.99 1016 10 16 0.00 0.00
8:59 pm 20:59 Cloudy 75 23.9 67 19.4 76 76 ESE 7 11 30.00 1016 10 16 0.00 0.00
9:59 pm 21:59 Cloudy 76 24.4 68 20 77 77 Calm 30.02 1017 10 16 0.00 0.00
10:59 pm 22:59 Cloudy 76 24.4 70 21.1 82 82 ESE 3 6 30.00 1016 10 16 0.00 0.00
11:59 pm 23:59 Cloudy 76 24.4 71 21.7 85 85 NE 3 6 30.00 1016 10 16 0.00 0.00

Powered by AerisWeather